Back to catalog

CZ-4C DEB

AlivePO
NORAD 42672·DEBRIS·🇨🇳 China

Launched Nov 26, 2015 from Taiyuan Satellite Launch Center

Loading…

Next Passes (next 24 hours)

TLE

FreshSource: Space-Track

Epoch: Sep 14, 2026, 10:46 UTC

1 42672U 15069E   26257.44916230  .00014497  00000-0  92335-3 0  9993
2 42672  98.2820 254.6779 0071407  10.4779 349.7915 15.06748443572542

Track CZ-4C DEB in real time with AllMySat

Download on the App Store